Meteo Giornale » Osservazioni meteo Italia » Treviso-S Angelo

ore: 05:50 - Osservazioni Meteo Treviso-S Angelo
Lat. 45° 39' N Lon. 12° 11' E Alt. 18 metri s.l.m.

coperto Europe/Rome

4 °C

Coperto

Temp. 24 Ore

4 °C

6 °C

Nord

3.7 Km/h

Dew point 3 °C

Umidità 93 %

Visibilità  6 Km

Il sole sorge alle ore 07:33

Il sole tramonta alle ore 16:29

Data e Ora Cielo e Fenomeni T °C DP °C Um. % Pres. hPa Vis. km Vento km/h
Oggi h: 05:50 coperto Coperto 4 3 93 1004 6 N 3.7
Oggi h: 05:20 foschia Foschia 4 4 100 1004 5 N 3.7
Oggi h: 04:50 foschia Foschia 4 3 93 1004 2 O/SO 7.4
Oggi h: 04:20 foschia Foschia 4 4 100 1004 4 N 1.8
Oggi h: 03:50 foschia Foschia 4 3 93 1004 3 N 3.7
Oggi h: 03:20 foschia Foschia 4 4 100 1004 4 N 5.5
Oggi h: 02:50 foschia Foschia 4 3 93 1005 4 N 3.7
Oggi h: 02:20 foschia Foschia 4 4 100 1005 5 N 3.7
Oggi h: 01:50 coperto Coperto 5 4 93 1005 6 N 1.8
Oggi h: 01:20 coperto Coperto 5 4 93 1005 6 N 1.8
Oggi h: 00:50 coperto Coperto 5 4 93 1005 6 N 3.7
Oggi h: 00:20 coperto Coperto 5 4 93 1005 6 N 3.7
Ieri h: 23:50 coperto Coperto 5 4 93 1005 7 N 5.5
Ieri h: 23:20 coperto Coperto 5 4 93 1005 6 N 1.8
Ieri h: 22:20 coperto Coperto 5 4 93 1006 6 N 5.5
Ieri h: 21:20 coperto Coperto 5 4 93 1006 6 N 5.5
Ieri h: 20:50 coperto Coperto 5 4 93 1006 6 N 5.5
Ieri h: 20:20 coperto Coperto 5 4 93 1006 7 N 5.5
Ieri h: 19:50 coperto Coperto 6 4 86 1007 8 O 7.4
Ieri h: 19:20 coperto Coperto 5 5 100 1006 9 N 5.5
Ieri h: 18:50 molto_nuvoloso Molto Nuvoloso 5 4 93 1007 10 N 3.7
Ieri h: 18:20 coperto Coperto 6 5 93 1007 10 N 3.7
Ieri h: 17:50 coperto Coperto 6 4 86 1007 10 N 1.8
Ieri h: 16:50 molto_nuvoloso Molto Nuvoloso 6 4 86 1007 6 N 5.5
Ieri h: 16:20 molto_nuvoloso Molto Nuvoloso 6 4 86 1007 6 N 3.7
Ieri h: 15:50 molto_nuvoloso Molto Nuvoloso 6 4 86 1007 7 N 3.7
Ieri h: 15:20 molto_nuvoloso Molto Nuvoloso 6 4 86 1007 10 N 1.8
Ieri h: 14:50 molto_nuvoloso Molto Nuvoloso 6 4 86 1007 10 N 3.7
Ieri h: 14:20 molto_nuvoloso Molto Nuvoloso 6 3 81 1007 10 N 3.7
Ieri h: 13:50 molto_nuvoloso Molto Nuvoloso 6 3 81 1007 10 N 1.8
Ieri h: 13:20 molto_nuvoloso Molto Nuvoloso 6 3 81 1007 10 N 3.7
Ieri h: 12:50 molto_nuvoloso Molto Nuvoloso 6 3 81 1007 10 N/NE 7.4
Ieri h: 12:20 molto_nuvoloso Molto Nuvoloso 6 3 81 1008 10 N 5.5
Ieri h: 11:50 molto_nuvoloso Molto Nuvoloso 5 3 86 1008 10 N 7.4
Ieri h: 11:20 molto_nuvoloso Molto Nuvoloso 5 3 86 1008 10 N 3.7
Ieri h: 10:50 molto_nuvoloso Molto Nuvoloso 5 3 86 1009 10 N 3.7
Ieri h: 10:20 molto_nuvoloso Molto Nuvoloso 5 3 86 1009 10 N 5.5
Ieri h: 09:50 molto_nuvoloso Molto Nuvoloso 5 3 86 1009 10 N 3.7
Ieri h: 09:20 molto_nuvoloso Molto Nuvoloso 4 3 93 1009 10 E 9.3
Ieri h: 08:50 coperto Coperto 4 3 93 1009 10 N 5.5
Ieri h: 08:20 coperto Coperto 4 4 100 1009 10 E 9.3
Ieri h: 07:50 coperto Coperto 4 3 93 1008 10 N 3.7
Ieri h: 07:20 coperto Coperto 4 3 93 1008 10 N 3.7
Ieri h: 06:50 coperto Coperto 4 3 93 1008 10 E 7.4
Ieri h: 06:20 coperto Coperto 4 3 93 1008 10 N 3.7
Ieri h: 05:50 coperto_pioggia Pioviggine Leggera 4 2 86 1007 10 O/NO 7.4